Year,Month,Day,Hour,Minute,Value (Times are PST for temperature in C)
2019,03,23,00,00,6.90
2019,03,23,00,01,6.90
2019,03,23,00,02,7.00
2019,03,23,00,03,7.00
2019,03,23,00,04,7.00
2019,03,23,00,05,6.90
2019,03,23,00,06,6.90
2019,03,23,00,07,6.80
2019,03,23,00,08,6.80
2019,03,23,00,09,6.70
2019,03,23,00,10,6.60
2019,03,23,00,11,6.60
2019,03,23,00,12,6.50
2019,03,23,00,13,6.50
2019,03,23,00,14,6.40
2019,03,23,00,15,6.40
2019,03,23,00,16,6.40
2019,03,23,00,17,6.30
2019,03,23,00,18,6.30
2019,03,23,00,19,6.40
2019,03,23,00,20,6.40
2019,03,23,00,21,6.40
2019,03,23,00,22,6.40
2019,03,23,00,23,6.30
2019,03,23,00,24,6.30
2019,03,23,00,25,6.30
2019,03,23,00,26,6.30
2019,03,23,00,27,6.20
2019,03,23,00,28,6.20
2019,03,23,00,29,6.20
2019,03,23,00,30,6.10
2019,03,23,00,31,6.10
2019,03,23,00,32,6.00
2019,03,23,00,33,6.00
2019,03,23,00,34,5.90
2019,03,23,00,35,5.90
2019,03,23,00,36,5.80
2019,03,23,00,37,5.80
2019,03,23,00,38,5.80
2019,03,23,00,39,5.80
2019,03,23,00,40,5.70
2019,03,23,00,41,5.70
2019,03,23,00,42,5.70
2019,03,23,00,43,5.60
2019,03,23,00,44,5.60
2019,03,23,00,45,5.60
2019,03,23,00,46,5.50
2019,03,23,00,47,5.50
2019,03,23,00,48,5.50
2019,03,23,00,49,5.50
2019,03,23,00,50,5.50
2019,03,23,00,51,5.50
2019,03,23,00,52,5.50
2019,03,23,00,53,5.50
2019,03,23,00,54,5.40
2019,03,23,00,55,5.40
2019,03,23,00,56,5.40
2019,03,23,00,57,5.40
2019,03,23,00,58,5.30
2019,03,23,00,59,5.30
2019,03,23,01,00,5.30
2019,03,23,01,01,5.30
2019,03,23,01,02,5.30
2019,03,23,01,03,5.30
2019,03,23,01,04,5.30
2019,03,23,01,05,5.30
2019,03,23,01,06,5.30
2019,03,23,01,07,5.30
2019,03,23,01,08,5.30
2019,03,23,01,09,5.40
2019,03,23,01,10,5.50
2019,03,23,01,11,5.70
2019,03,23,01,12,5.80
2019,03,23,01,13,5.90
2019,03,23,01,14,6.00
2019,03,23,01,15,6.00
2019,03,23,01,16,6.10
2019,03,23,01,17,6.10
2019,03,23,01,18,6.20
2019,03,23,01,19,6.20
2019,03,23,01,20,6.20
2019,03,23,01,21,6.20
2019,03,23,01,22,6.20
2019,03,23,01,23,6.20
2019,03,23,01,24,6.20
2019,03,23,01,25,6.20
2019,03,23,01,26,6.20
2019,03,23,01,27,6.30
2019,03,23,01,28,6.30
2019,03,23,01,29,6.30
2019,03,23,01,30,6.30
2019,03,23,01,31,6.30
2019,03,23,01,32,6.30
2019,03,23,01,33,6.30
2019,03,23,01,34,6.40
2019,03,23,01,35,6.40
2019,03,23,01,36,6.40
2019,03,23,01,37,6.40
2019,03,23,01,38,6.40
2019,03,23,01,39,6.40
2019,03,23,01,40,6.40
2019,03,23,01,41,6.40
2019,03,23,01,42,6.50
2019,03,23,01,43,6.60
2019,03,23,01,44,6.60
2019,03,23,01,45,6.70
2019,03,23,01,46,6.70
2019,03,23,01,47,6.70
2019,03,23,01,48,6.80
2019,03,23,01,49,6.80
2019,03,23,01,50,6.80
2019,03,23,01,51,6.80
2019,03,23,01,52,6.80
2019,03,23,01,53,6.80
2019,03,23,01,54,6.80
2019,03,23,01,55,6.80
2019,03,23,01,56,6.80
2019,03,23,01,57,6.80
2019,03,23,01,58,6.80
2019,03,23,01,59,6.80
2019,03,23,02,00,6.80
2019,03,23,02,01,6.80
2019,03,23,02,02,6.80
2019,03,23,02,03,6.70
2019,03,23,02,04,6.70
2019,03,23,02,05,6.70
2019,03,23,02,06,6.70
2019,03,23,02,07,6.60
2019,03,23,02,08,6.50
2019,03,23,02,09,6.50
2019,03,23,02,10,6.40
2019,03,23,02,11,6.40
2019,03,23,02,12,6.50
2019,03,23,02,13,6.50
2019,03,23,02,14,6.60
2019,03,23,02,15,6.60
2019,03,23,02,16,6.60
2019,03,23,02,17,6.60
2019,03,23,02,18,6.60
2019,03,23,02,19,6.60
2019,03,23,02,20,6.60
2019,03,23,02,21,6.60
2019,03,23,02,22,6.60
2019,03,23,02,23,6.60
2019,03,23,02,24,6.60
2019,03,23,02,25,6.60
2019,03,23,02,26,6.60
2019,03,23,02,27,6.60
2019,03,23,02,28,6.50
2019,03,23,02,29,6.50
2019,03,23,02,30,6.50
2019,03,23,02,31,6.40
2019,03,23,02,32,6.40
2019,03,23,02,33,6.30
2019,03,23,02,34,6.30
2019,03,23,02,35,6.30
2019,03,23,02,36,6.30
2019,03,23,02,37,6.30
2019,03,23,02,38,6.30
2019,03,23,02,39,6.30
2019,03,23,02,40,6.30
2019,03,23,02,41,6.20
2019,03,23,02,42,6.20
2019,03,23,02,43,6.10
2019,03,23,02,44,6.10
2019,03,23,02,45,6.20
2019,03,23,02,46,6.20
2019,03,23,02,47,6.20
2019,03,23,02,48,6.30
2019,03,23,02,49,6.30
2019,03,23,02,50,6.30
2019,03,23,02,51,6.30
2019,03,23,02,52,6.30
2019,03,23,02,53,6.30
2019,03,23,02,54,6.20
2019,03,23,02,55,6.10
2019,03,23,02,56,6.00
2019,03,23,02,57,5.90
2019,03,23,02,58,5.80
2019,03,23,02,59,5.80
2019,03,23,03,00,5.80
2019,03,23,03,01,5.80
2019,03,23,03,02,5.80
2019,03,23,03,03,5.80
2019,03,23,03,04,5.70
2019,03,23,03,05,5.80
2019,03,23,03,06,5.80
2019,03,23,03,07,5.80
2019,03,23,03,08,5.90
2019,03,23,03,09,5.90
2019,03,23,03,10,6.00
2019,03,23,03,11,6.00
2019,03,23,03,12,6.00
2019,03,23,03,13,5.90
2019,03,23,03,14,5.90
2019,03,23,03,15,5.90
2019,03,23,03,16,5.90
2019,03,23,03,17,5.90
2019,03,23,03,18,5.90
2019,03,23,03,19,6.00
2019,03,23,03,20,6.00
2019,03,23,03,21,6.00
2019,03,23,03,22,6.00
2019,03,23,03,23,6.00
2019,03,23,03,24,6.00
2019,03,23,03,25,6.00
2019,03,23,03,26,6.00
2019,03,23,03,27,5.90
2019,03,23,03,28,5.90
2019,03,23,03,29,5.90
2019,03,23,03,30,5.90
2019,03,23,03,31,5.90
2019,03,23,03,32,5.80
2019,03,23,03,33,5.80
2019,03,23,03,34,5.80
2019,03,23,03,35,5.80
2019,03,23,03,36,5.80
2019,03,23,03,37,5.80
2019,03,23,03,38,5.70
2019,03,23,03,39,5.60
2019,03,23,03,40,5.50
2019,03,23,03,41,5.40
2019,03,23,03,42,5.40
2019,03,23,03,43,5.40
2019,03,23,03,44,5.40
2019,03,23,03,45,5.30
2019,03,23,03,46,5.40
2019,03,23,03,47,5.40
2019,03,23,03,48,5.40
2019,03,23,03,49,5.40
2019,03,23,03,50,5.40
2019,03,23,03,51,5.40
2019,03,23,03,52,5.40
2019,03,23,03,53,5.30
2019,03,23,03,54,5.30
2019,03,23,03,55,5.30
2019,03,23,03,56,5.40
2019,03,23,03,57,5.40
2019,03,23,03,58,5.40
2019,03,23,03,59,5.40
2019,03,23,04,00,5.40
2019,03,23,04,01,5.40
2019,03,23,04,02,5.50
2019,03,23,04,03,5.50
2019,03,23,04,04,5.50
2019,03,23,04,05,5.50
2019,03,23,04,06,5.60
2019,03,23,04,07,5.60
2019,03,23,04,08,5.60
2019,03,23,04,09,5.60
2019,03,23,04,10,5.60
2019,03,23,04,11,5.70
2019,03,23,04,12,5.70
2019,03,23,04,13,5.70
2019,03,23,04,14,5.70
2019,03,23,04,15,5.70
2019,03,23,04,16,5.70
2019,03,23,04,17,5.70
2019,03,23,04,18,5.70
2019,03,23,04,19,5.80
2019,03,23,04,20,5.80
2019,03,23,04,21,5.80
2019,03,23,04,22,5.80
2019,03,23,04,23,5.80
2019,03,23,04,24,5.80
2019,03,23,04,25,5.80
2019,03,23,04,26,5.80
2019,03,23,04,27,5.80
2019,03,23,04,28,5.80
2019,03,23,04,29,5.70
2019,03,23,04,30,5.80
2019,03,23,04,31,5.80
2019,03,23,04,32,5.80
2019,03,23,04,33,5.80
2019,03,23,04,34,5.80
2019,03,23,04,35,5.80
2019,03,23,04,36,5.80
2019,03,23,04,37,5.80
2019,03,23,04,38,5.80
2019,03,23,04,39,5.80
2019,03,23,04,40,5.80
2019,03,23,04,41,5.80
2019,03,23,04,42,5.80
2019,03,23,04,43,5.80
2019,03,23,04,44,5.80
2019,03,23,04,45,5.80
2019,03,23,04,46,5.80
2019,03,23,04,47,5.80
2019,03,23,04,48,5.80
2019,03,23,04,49,5.80
2019,03,23,04,50,5.90
2019,03,23,04,51,5.90
2019,03,23,04,52,5.90
2019,03,23,04,53,5.90
2019,03,23,04,54,5.90
2019,03,23,04,55,5.90
2019,03,23,04,56,5.90
2019,03,23,04,57,5.90
2019,03,23,04,58,5.90
2019,03,23,04,59,5.90
2019,03,23,05,00,5.90
2019,03,23,05,01,5.90
2019,03,23,05,02,5.90
2019,03,23,05,03,5.90
2019,03,23,05,04,5.90
2019,03,23,05,05,5.90
2019,03,23,05,06,5.90
2019,03,23,05,07,5.90
2019,03,23,05,08,5.90
2019,03,23,05,09,5.90
2019,03,23,05,10,5.90
2019,03,23,05,11,5.90
2019,03,23,05,12,5.90
2019,03,23,05,13,5.90
2019,03,23,05,14,5.90
2019,03,23,05,15,5.80
2019,03,23,05,16,5.80
2019,03,23,05,17,5.90
2019,03,23,05,18,5.90
2019,03,23,05,19,5.90
2019,03,23,05,20,5.90
2019,03,23,05,21,5.80
2019,03,23,05,22,5.80
2019,03,23,05,23,5.80
2019,03,23,05,24,5.80
2019,03,23,05,25,5.70
2019,03,23,05,26,5.60
2019,03,23,05,27,5.60
2019,03,23,05,28,5.50
2019,03,23,05,29,5.50
2019,03,23,05,30,5.50
2019,03,23,05,31,5.40
2019,03,23,05,32,5.40
2019,03,23,05,33,5.40
2019,03,23,05,34,5.40
2019,03,23,05,35,5.40
2019,03,23,05,36,5.40
2019,03,23,05,37,5.40
2019,03,23,05,38,5.30
2019,03,23,05,39,5.30
2019,03,23,05,40,5.30
2019,03,23,05,41,5.30
2019,03,23,05,42,5.30
2019,03,23,05,43,5.30
2019,03,23,05,44,5.30
2019,03,23,05,45,5.20
2019,03,23,05,46,5.20
2019,03,23,05,47,5.20
2019,03,23,05,48,5.20
2019,03,23,05,49,5.20
2019,03,23,05,50,5.20
2019,03,23,05,51,5.20
2019,03,23,05,52,5.10
2019,03,23,05,53,5.10
2019,03,23,05,54,5.10
2019,03,23,05,55,5.10
2019,03,23,05,56,5.10
2019,03,23,05,57,5.00
2019,03,23,05,58,5.00
2019,03,23,05,59,4.90
2019,03,23,06,00,4.90
2019,03,23,06,01,4.90
2019,03,23,06,02,4.90
2019,03,23,06,03,4.90
2019,03,23,06,04,4.80
2019,03,23,06,05,4.80
2019,03,23,06,06,4.80
2019,03,23,06,07,4.80
2019,03,23,06,08,4.70
2019,03,23,06,09,4.70
2019,03,23,06,10,4.70
2019,03,23,06,11,4.70
2019,03,23,06,12,4.70
2019,03,23,06,13,4.70
2019,03,23,06,14,4.70
2019,03,23,06,15,4.70
2019,03,23,06,16,4.70
2019,03,23,06,17,4.70
2019,03,23,06,18,4.70
2019,03,23,06,19,4.70
2019,03,23,06,20,4.70
2019,03,23,06,21,4.70
2019,03,23,06,22,4.70
2019,03,23,06,23,4.70
2019,03,23,06,24,4.70
2019,03,23,06,25,4.70
2019,03,23,06,26,4.70
2019,03,23,06,27,4.70
2019,03,23,06,28,4.60
2019,03,23,06,29,4.60
2019,03,23,06,30,4.60
2019,03,23,06,31,4.60
2019,03,23,06,32,4.60
2019,03,23,06,33,4.60
2019,03,23,06,34,4.60
2019,03,23,06,35,4.60
2019,03,23,06,36,4.50
2019,03,23,06,37,4.50
2019,03,23,06,38,4.50
2019,03,23,06,39,4.50
2019,03,23,06,40,4.50
2019,03,23,06,41,4.50
2019,03,23,06,42,4.50
2019,03,23,06,43,4.50
2019,03,23,06,44,4.50
2019,03,23,06,45,4.50
2019,03,23,06,46,4.50
2019,03,23,06,47,4.60
2019,03,23,06,48,4.60
2019,03,23,06,49,4.60
2019,03,23,06,50,4.60
2019,03,23,06,51,4.60
2019,03,23,06,52,4.60
2019,03,23,06,53,4.60
2019,03,23,06,54,4.60
2019,03,23,06,55,4.60
2019,03,23,06,56,4.60
2019,03,23,06,57,4.60
2019,03,23,06,58,4.60
2019,03,23,06,59,4.60
2019,03,23,07,00,4.60
2019,03,23,07,01,4.70
2019,03,23,07,02,4.70
2019,03,23,07,03,4.70
2019,03,23,07,04,4.70
2019,03,23,07,05,4.70
2019,03,23,07,06,4.70
2019,03,23,07,07,4.60
2019,03,23,07,08,4.60
2019,03,23,07,09,4.60
2019,03,23,07,10,4.60
2019,03,23,07,11,4.60
2019,03,23,07,12,4.60
2019,03,23,07,13,4.60
2019,03,23,07,14,4.60
2019,03,23,07,15,4.60
2019,03,23,07,16,4.60
2019,03,23,07,17,4.60
2019,03,23,07,18,4.60
2019,03,23,07,19,4.60
2019,03,23,07,20,4.60
2019,03,23,07,21,4.60
2019,03,23,07,22,4.60
2019,03,23,07,23,4.60
2019,03,23,07,24,4.60
2019,03,23,07,25,4.60
2019,03,23,07,26,4.60
2019,03,23,07,27,4.60
2019,03,23,07,28,4.60
2019,03,23,07,29,4.60
2019,03,23,07,30,4.60
2019,03,23,07,31,4.60
2019,03,23,07,32,4.60
2019,03,23,07,33,4.60
2019,03,23,07,34,4.60
2019,03,23,07,35,4.60
2019,03,23,07,36,4.60
2019,03,23,07,37,4.60
2019,03,23,07,38,4.60
2019,03,23,07,39,4.60
2019,03,23,07,40,4.60
2019,03,23,07,41,4.60
2019,03,23,07,42,4.60
2019,03,23,07,43,4.60
2019,03,23,07,44,4.60
2019,03,23,07,45,4.60
2019,03,23,07,46,4.60
2019,03,23,07,47,4.60
2019,03,23,07,48,4.60
2019,03,23,07,49,4.60
2019,03,23,07,50,4.60
2019,03,23,07,51,4.60
2019,03,23,07,52,4.60
2019,03,23,07,53,4.60
2019,03,23,07,54,4.60
2019,03,23,07,55,4.60
2019,03,23,07,56,4.60
2019,03,23,07,57,4.60
2019,03,23,07,58,4.60
2019,03,23,07,59,4.60
2019,03,23,08,00,4.60
2019,03,23,08,01,4.60
2019,03,23,08,02,4.60
2019,03,23,08,03,4.60
2019,03,23,08,04,4.70
2019,03,23,08,05,4.70
2019,03,23,08,06,4.70
2019,03,23,08,07,4.80
2019,03,23,08,08,4.80
2019,03,23,08,09,4.80
2019,03,23,08,10,4.90
2019,03,23,08,11,4.90
2019,03,23,08,12,4.90
2019,03,23,08,13,5.00
2019,03,23,08,14,5.00
2019,03,23,08,15,5.10
2019,03,23,08,16,5.20
2019,03,23,08,17,5.20
2019,03,23,08,18,5.20
2019,03,23,08,19,5.20
2019,03,23,08,20,5.20
2019,03,23,08,21,5.20
2019,03,23,08,22,5.20
2019,03,23,08,23,5.20
2019,03,23,08,24,5.20
2019,03,23,08,25,5.20
2019,03,23,08,26,5.20
2019,03,23,08,27,5.20
2019,03,23,08,28,5.20
2019,03,23,08,29,5.20
2019,03,23,08,30,5.20
2019,03,23,08,31,5.30
2019,03,23,08,32,5.30
2019,03,23,08,33,5.30
2019,03,23,08,34,5.40
2019,03,23,08,35,5.40
2019,03,23,08,36,5.40
2019,03,23,08,37,5.50
2019,03,23,08,38,5.50
2019,03,23,08,39,5.60
2019,03,23,08,40,5.60
2019,03,23,08,41,5.60
2019,03,23,08,42,5.60
2019,03,23,08,43,5.70
2019,03,23,08,44,5.80
2019,03,23,08,45,5.80
2019,03,23,08,46,5.90
2019,03,23,08,47,6.00
2019,03,23,08,48,6.10
2019,03,23,08,49,6.10
2019,03,23,08,50,6.10
2019,03,23,08,51,6.10
2019,03,23,08,52,6.10
2019,03,23,08,53,6.10
2019,03,23,08,54,6.20
2019,03,23,08,55,6.20
2019,03,23,08,56,6.20
2019,03,23,08,57,6.20
2019,03,23,08,58,6.20
2019,03,23,08,59,6.30
2019,03,23,09,00,6.30
2019,03,23,09,01,6.40
2019,03,23,09,02,6.40
2019,03,23,09,03,6.50
2019,03,23,09,04,6.50
2019,03,23,09,05,6.60
2019,03,23,09,06,6.60
2019,03,23,09,07,6.70
2019,03,23,09,08,6.70
2019,03,23,09,09,6.70
2019,03,23,09,10,6.80
2019,03,23,09,11,6.80
2019,03,23,09,12,6.80
2019,03,23,09,13,6.80
2019,03,23,09,14,6.80
2019,03,23,09,15,6.80
2019,03,23,09,16,6.80
2019,03,23,09,17,6.90
2019,03,23,09,18,7.00
2019,03,23,09,19,7.10
2019,03,23,09,20,7.10
2019,03,23,09,21,7.00
2019,03,23,09,22,7.00
2019,03,23,09,23,7.00
2019,03,23,09,24,7.00
2019,03,23,09,25,7.00
2019,03,23,09,26,7.00
2019,03,23,09,27,7.00
2019,03,23,09,28,7.00
2019,03,23,09,29,7.00
2019,03,23,09,30,7.00
2019,03,23,09,31,7.10
2019,03,23,09,32,7.00
2019,03,23,09,33,7.00
2019,03,23,09,34,7.00
2019,03,23,09,35,7.10
2019,03,23,09,36,7.10
2019,03,23,09,37,7.20
2019,03,23,09,38,7.20
2019,03,23,09,39,7.30
2019,03,23,09,40,7.30
2019,03,23,09,41,7.30
2019,03,23,09,42,7.30
2019,03,23,09,43,7.30
2019,03,23,09,44,7.30
2019,03,23,09,45,7.30
2019,03,23,09,46,7.30
2019,03,23,09,47,7.40
2019,03,23,09,48,7.40
2019,03,23,09,49,7.50
2019,03,23,09,50,7.50
2019,03,23,09,51,7.50
2019,03,23,09,52,7.60
2019,03,23,09,53,7.60
2019,03,23,09,54,7.60
2019,03,23,09,55,7.70
2019,03,23,09,56,7.70
2019,03,23,09,57,7.70
2019,03,23,09,58,7.70
2019,03,23,09,59,7.70
2019,03,23,10,00,7.70
2019,03,23,10,01,7.70
2019,03,23,10,02,7.70
2019,03,23,10,03,7.80
2019,03,23,10,04,7.80
2019,03,23,10,05,7.90
2019,03,23,10,06,7.90
2019,03,23,10,07,7.90
2019,03,23,10,08,7.90
2019,03,23,10,09,7.90
2019,03,23,10,10,7.90
2019,03,23,10,11,7.90
2019,03,23,10,12,7.90
2019,03,23,10,13,8.00
2019,03,23,10,14,8.00
2019,03,23,10,15,8.10
2019,03,23,10,16,8.10
2019,03,23,10,17,8.20
2019,03,23,10,18,8.20
2019,03,23,10,19,8.20
2019,03,23,10,20,8.20
2019,03,23,10,21,8.30
2019,03,23,10,22,8.30
2019,03,23,10,23,8.30
2019,03,23,10,24,8.30
2019,03,23,10,25,8.30
2019,03,23,10,26,8.30
2019,03,23,10,27,8.30
2019,03,23,10,28,8.30
2019,03,23,10,29,8.30
2019,03,23,10,30,8.30
2019,03,23,10,31,8.30
2019,03,23,10,32,8.20
2019,03,23,10,33,8.20
2019,03,23,10,34,8.30
2019,03,23,10,35,8.30
2019,03,23,10,36,8.40
2019,03,23,10,37,8.40
2019,03,23,10,38,8.50
2019,03,23,10,39,8.50
2019,03,23,10,40,8.50
2019,03,23,10,41,8.40
2019,03,23,10,42,8.40
2019,03,23,10,43,8.30
2019,03,23,10,44,8.30
2019,03,23,10,45,8.40
2019,03,23,10,46,8.40
2019,03,23,10,47,8.40
2019,03,23,10,48,8.40
2019,03,23,10,49,8.30
2019,03,23,10,50,8.30
2019,03,23,10,51,8.30
2019,03,23,10,52,8.30
2019,03,23,10,53,8.30
2019,03,23,10,54,8.30
2019,03,23,10,55,8.30
2019,03,23,10,56,8.40
2019,03,23,10,57,8.40
2019,03,23,10,58,8.50
2019,03,23,10,59,8.60
2019,03,23,11,00,8.60
2019,03,23,11,01,8.60
2019,03,23,11,02,8.60
2019,03,23,11,03,8.60
2019,03,23,11,04,8.60
2019,03,23,11,05,8.60
2019,03,23,11,06,8.60
2019,03,23,11,07,8.70
2019,03,23,11,08,8.70
2019,03,23,11,09,8.80
2019,03,23,11,10,8.80
2019,03,23,11,11,8.90
2019,03,23,11,12,8.90
2019,03,23,11,13,8.90
2019,03,23,11,14,8.80
2019,03,23,11,15,8.80
2019,03,23,11,16,8.80
2019,03,23,11,17,8.80
2019,03,23,11,18,8.90
2019,03,23,11,19,8.90
2019,03,23,11,20,9.00
2019,03,23,11,21,9.10
2019,03,23,11,22,9.10
2019,03,23,11,23,9.10
2019,03,23,11,24,9.00
2019,03,23,11,25,9.00
2019,03,23,11,26,9.00
2019,03,23,11,27,9.10
2019,03,23,11,28,9.10
2019,03,23,11,29,9.20
2019,03,23,11,30,9.30
2019,03,23,11,31,9.30
2019,03,23,11,32,9.30
2019,03,23,11,33,9.30
2019,03,23,11,34,9.30
2019,03,23,11,35,9.40
2019,03,23,11,36,9.40
2019,03,23,11,37,9.40
2019,03,23,11,38,9.30
2019,03,23,11,39,9.30
2019,03,23,11,40,9.30
2019,03,23,11,41,9.30
2019,03,23,11,42,9.30
2019,03,23,11,43,9.30
2019,03,23,11,44,9.30
2019,03,23,11,45,9.30
2019,03,23,11,46,9.30
2019,03,23,11,47,9.40
2019,03,23,11,48,9.40
2019,03,23,11,49,9.40
2019,03,23,11,50,9.40
2019,03,23,11,51,9.40
2019,03,23,11,52,9.40
2019,03,23,11,53,9.40
2019,03,23,11,54,9.40
2019,03,23,11,55,9.40
2019,03,23,11,56,9.40
2019,03,23,11,57,9.40
2019,03,23,11,58,9.30
2019,03,23,11,59,9.20
2019,03,23,12,00,9.20
2019,03,23,12,01,9.20
2019,03,23,12,02,9.10
2019,03,23,12,03,9.10
2019,03,23,12,04,9.10
2019,03,23,12,05,9.10
2019,03,23,12,06,9.10
2019,03,23,12,07,9.20
2019,03,23,12,08,9.20
2019,03,23,12,09,9.20
2019,03,23,12,10,9.20
2019,03,23,12,11,9.30
2019,03,23,12,12,9.30
2019,03,23,12,13,9.40
2019,03,23,12,14,9.40
2019,03,23,12,15,9.40
2019,03,23,12,16,9.50
2019,03,23,12,17,9.60
2019,03,23,12,18,9.60
2019,03,23,12,19,9.70
2019,03,23,12,20,9.70
2019,03,23,12,21,9.80
2019,03,23,12,22,9.80
2019,03,23,12,23,9.90
2019,03,23,12,24,9.90
2019,03,23,12,25,9.90
2019,03,23,12,26,9.90
2019,03,23,12,27,9.90
2019,03,23,12,28,9.90
2019,03,23,12,29,10.00
2019,03,23,12,30,10.00
2019,03,23,12,31,9.90
2019,03,23,12,32,9.90
2019,03,23,12,33,9.90
2019,03,23,12,34,9.90
2019,03,23,12,35,9.90
2019,03,23,12,36,9.90
2019,03,23,12,37,10.00
2019,03,23,12,38,10.00
2019,03,23,12,39,10.00
2019,03,23,12,40,10.00
2019,03,23,12,41,10.00
2019,03,23,12,42,9.90
2019,03,23,12,43,9.90
2019,03,23,12,44,9.90
2019,03,23,12,45,9.90
2019,03,23,12,46,10.00
2019,03,23,12,47,10.10
2019,03,23,12,48,10.20
2019,03,23,12,49,10.20
2019,03,23,12,50,10.30
2019,03,23,12,51,10.30
2019,03,23,12,52,10.30
2019,03,23,12,53,10.20
2019,03,23,12,54,10.20
2019,03,23,12,55,10.20
2019,03,23,12,56,10.20
2019,03,23,12,57,10.20
2019,03,23,12,58,10.20
2019,03,23,12,59,10.20
2019,03,23,13,00,10.20
2019,03,23,13,01,10.20
2019,03,23,13,02,10.20
2019,03,23,13,03,10.20
2019,03,23,13,04,10.30
2019,03,23,13,05,10.30
2019,03,23,13,06,10.40
2019,03,23,13,07,10.50
2019,03,23,13,08,10.50
2019,03,23,13,09,10.60
2019,03,23,13,10,10.60
2019,03,23,13,11,10.60
2019,03,23,13,12,10.70
2019,03,23,13,13,10.80
2019,03,23,13,14,10.80
2019,03,23,13,15,10.80
2019,03,23,13,16,10.80
2019,03,23,13,17,10.80
2019,03,23,13,18,10.80
2019,03,23,13,19,10.80
2019,03,23,13,20,10.90
2019,03,23,13,21,10.90
2019,03,23,13,22,10.90
2019,03,23,13,23,10.90
2019,03,23,13,24,10.80
2019,03,23,13,25,10.70
2019,03,23,13,26,10.60
2019,03,23,13,27,10.60
2019,03,23,13,28,10.60
2019,03,23,13,29,10.60
2019,03,23,13,30,10.60
2019,03,23,13,31,10.60
2019,03,23,13,32,10.60
2019,03,23,13,33,10.60
2019,03,23,13,34,10.50
2019,03,23,13,35,10.40
2019,03,23,13,36,10.30
2019,03,23,13,37,10.30
2019,03,23,13,38,10.30
2019,03,23,13,39,10.30
2019,03,23,13,40,10.30
2019,03,23,13,41,10.30
2019,03,23,13,42,10.30
2019,03,23,13,43,10.30
2019,03,23,13,44,10.30
2019,03,23,13,45,10.30
2019,03,23,13,46,10.30
2019,03,23,13,47,10.30
2019,03,23,13,48,10.20
2019,03,23,13,49,10.10
2019,03,23,13,50,9.90
2019,03,23,13,51,9.90
2019,03,23,13,52,9.90
2019,03,23,13,53,10.00
2019,03,23,13,54,10.10
2019,03,23,13,55,10.20
2019,03,23,13,56,10.20
2019,03,23,13,57,10.30
2019,03,23,13,58,10.40
2019,03,23,13,59,10.30
2019,03,23,14,00,10.30
2019,03,23,14,01,10.30
2019,03,23,14,02,10.30
2019,03,23,14,03,10.30
2019,03,23,14,04,10.40
2019,03,23,14,05,10.50
2019,03,23,14,06,10.60
2019,03,23,14,07,10.70
2019,03,23,14,08,10.80
2019,03,23,14,09,10.80
2019,03,23,14,10,10.80
2019,03,23,14,11,10.90
2019,03,23,14,12,11.00
2019,03,23,14,13,11.00
2019,03,23,14,14,11.10
2019,03,23,14,15,11.20
2019,03,23,14,16,11.30
2019,03,23,14,17,11.30
2019,03,23,14,18,11.30
2019,03,23,14,19,11.30
2019,03,23,14,20,11.30
2019,03,23,14,21,11.30
2019,03,23,14,22,11.30
2019,03,23,14,23,11.30
2019,03,23,14,24,11.30
2019,03,23,14,25,11.20
2019,03,23,14,26,11.20
2019,03,23,14,27,11.20
2019,03,23,14,28,11.20
2019,03,23,14,29,11.30
2019,03,23,14,30,11.30
2019,03,23,14,31,11.40
2019,03,23,14,32,11.40
2019,03,23,14,33,11.40
2019,03,23,14,34,11.40
2019,03,23,14,35,11.30
2019,03,23,14,36,11.30
2019,03,23,14,37,11.30
2019,03,23,14,38,11.30
2019,03,23,14,39,11.30
2019,03,23,14,40,11.30
2019,03,23,14,41,11.20
2019,03,23,14,42,11.10
2019,03,23,14,43,11.10
2019,03,23,14,44,11.10
2019,03,23,14,45,11.10
2019,03,23,14,46,11.10
2019,03,23,14,47,11.00
2019,03,23,14,48,11.00
2019,03,23,14,49,11.00
2019,03,23,14,50,10.90
2019,03,23,14,51,11.00
2019,03,23,14,52,11.00
2019,03,23,14,53,11.00
2019,03,23,14,54,11.10
2019,03,23,14,55,11.10
2019,03,23,14,56,11.10
2019,03,23,14,57,11.10
2019,03,23,14,58,11.20
2019,03,23,14,59,11.20
2019,03,23,15,00,11.10
2019,03,23,15,01,11.10
2019,03,23,15,02,11.10
2019,03,23,15,03,11.10
2019,03,23,15,04,11.10
2019,03,23,15,05,11.20
2019,03,23,15,06,11.20
2019,03,23,15,07,11.20
2019,03,23,15,08,11.20
2019,03,23,15,09,11.20
2019,03,23,15,10,11.20
2019,03,23,15,11,11.20
2019,03,23,15,12,11.30
2019,03,23,15,13,11.40
2019,03,23,15,14,11.40
2019,03,23,15,15,11.40
2019,03,23,15,16,11.40
2019,03,23,15,17,11.40
2019,03,23,15,18,11.50
2019,03,23,15,19,11.50
2019,03,23,15,20,11.50
2019,03,23,15,21,11.40
2019,03,23,15,22,11.40
2019,03,23,15,23,11.40
2019,03,23,15,24,11.50
2019,03,23,15,25,11.60
2019,03,23,15,26,11.60
2019,03,23,15,27,11.70
2019,03,23,15,28,11.70
2019,03,23,15,29,11.80
2019,03,23,15,30,11.80
2019,03,23,15,31,11.80
2019,03,23,15,32,11.80
2019,03,23,15,33,11.80
2019,03,23,15,34,11.90
2019,03,23,15,35,11.90
2019,03,23,15,36,11.90
2019,03,23,15,37,11.90
2019,03,23,15,38,11.90
2019,03,23,15,39,12.00
2019,03,23,15,40,12.00
2019,03,23,15,41,11.90
2019,03,23,15,42,11.90
2019,03,23,15,43,11.90
2019,03,23,15,44,12.00
2019,03,23,15,45,11.90
2019,03,23,15,46,11.90
2019,03,23,15,47,11.90
2019,03,23,15,48,11.80
2019,03,23,15,49,11.90
2019,03,23,15,50,11.90
2019,03,23,15,51,11.90
2019,03,23,15,52,11.90
2019,03,23,15,53,11.80
2019,03,23,15,54,11.80
2019,03,23,15,55,11.70
2019,03,23,15,56,11.60
2019,03,23,15,57,11.50
2019,03,23,15,58,11.30
2019,03,23,15,59,11.10
2019,03,23,16,00,11.10
2019,03,23,16,01,11.00
2019,03,23,16,02,10.90
2019,03,23,16,03,10.90
2019,03,23,16,04,10.90
2019,03,23,16,05,10.90
2019,03,23,16,06,10.90
2019,03,23,16,07,10.90
2019,03,23,16,08,10.80
2019,03,23,16,09,10.80
2019,03,23,16,10,10.80
2019,03,23,16,11,10.80
2019,03,23,16,12,10.90
2019,03,23,16,13,10.90
2019,03,23,16,14,10.90
2019,03,23,16,15,11.00
2019,03,23,16,16,11.00
2019,03,23,16,17,11.10
2019,03,23,16,18,11.10
2019,03,23,16,19,11.20
2019,03,23,16,20,11.30
2019,03,23,16,21,11.40
2019,03,23,16,22,11.50
2019,03,23,16,23,11.60
2019,03,23,16,24,11.70
2019,03,23,16,25,11.80
2019,03,23,16,26,11.90
2019,03,23,16,27,11.90
2019,03,23,16,28,11.90
2019,03,23,16,29,11.90
2019,03,23,16,30,11.90
2019,03,23,16,31,11.90
2019,03,23,16,32,11.80
2019,03,23,16,33,11.80
2019,03,23,16,34,11.80
2019,03,23,16,35,11.80
2019,03,23,16,36,11.80
2019,03,23,16,37,11.80
2019,03,23,16,38,11.80
2019,03,23,16,39,11.90
2019,03,23,16,40,11.90
2019,03,23,16,41,11.90
2019,03,23,16,42,11.90
2019,03,23,16,43,11.80
2019,03,23,16,44,11.80
2019,03,23,16,45,11.80
2019,03,23,16,46,11.80
2019,03,23,16,47,11.80
2019,03,23,16,48,11.90
2019,03,23,16,49,11.90
2019,03,23,16,50,11.90
2019,03,23,16,51,11.80
2019,03,23,16,52,11.80
2019,03,23,16,53,11.80
2019,03,23,16,54,11.80
2019,03,23,16,55,11.70
2019,03,23,16,56,11.70
2019,03,23,16,57,11.70
2019,03,23,16,58,11.80
2019,03,23,16,59,11.80
2019,03,23,17,00,11.80
2019,03,23,17,01,11.80
2019,03,23,17,02,11.80
2019,03,23,17,03,11.80
2019,03,23,17,04,11.90
2019,03,23,17,05,11.90
2019,03,23,17,06,11.90
2019,03,23,17,07,11.90
2019,03,23,17,08,12.00
2019,03,23,17,09,12.00
2019,03,23,17,10,12.00
2019,03,23,17,11,12.00
2019,03,23,17,12,12.00
2019,03,23,17,13,12.00
2019,03,23,17,14,12.00
2019,03,23,17,15,12.00
2019,03,23,17,16,12.00
2019,03,23,17,17,12.00
2019,03,23,17,18,12.10
2019,03,23,17,19,12.20
2019,03,23,17,20,12.20
2019,03,23,17,21,12.30
2019,03,23,17,22,12.30
2019,03,23,17,23,12.40
2019,03,23,17,24,12.50
2019,03,23,17,25,12.60
2019,03,23,17,26,12.80
2019,03,23,17,27,12.90
2019,03,23,17,28,13.00
2019,03,23,17,29,13.00
2019,03,23,17,30,12.90
2019,03,23,17,31,12.90
2019,03,23,17,32,12.80
2019,03,23,17,33,12.80
2019,03,23,17,34,12.80
2019,03,23,17,35,12.80
2019,03,23,17,36,12.80
2019,03,23,17,37,12.70
2019,03,23,17,38,12.70
2019,03,23,17,39,12.70
2019,03,23,17,40,12.70
2019,03,23,17,41,12.70
2019,03,23,17,42,12.60
2019,03,23,17,43,12.60
2019,03,23,17,44,12.60
2019,03,23,17,45,12.60
2019,03,23,17,46,12.60
2019,03,23,17,47,12.50
2019,03,23,17,48,12.50
2019,03,23,17,49,12.50
2019,03,23,17,50,12.50
2019,03,23,17,51,12.40
2019,03,23,17,52,12.40